www.pogodaiklimat.ru

Погода и климат >> Архив погоды >> Парагвай >> Gral. Bruguez


ПОГОДА в Gral. Bruguez

  • Прогноз погоды в Gral. Bruguez
  • Монитор погоды в Gral. Bruguez
  • Климат города

АРХИВ ПОГОДЫ в Gral. Bruguez

Время (UTC), дата Ветер
(напр.,м/с)
 
Видим.   Явления Облачность Т
(С)
Тd
(С)
f
(%)
Тe
(С)
Тes
(С)
Комфортность P
(гПа)
Po
(гПа)
Тmin
(С)
Tmax
(С)
R
(мм)
R24
(мм)
S
(см)
09 8.12 штиль 0 20 км ясно +14.8 +13.5 92 +14 +14 1017.5 1006.8
15 8.12 В 2 20 км ясно +26.4 +13.6 45 +28 +49 жарко 1016.3 1006.0
18 8.12 В 3 20 км ясно +28.6 +14.0 41 +31 +45 жарко 1012.1 1002.0
00 9.12 штиль 0 20 км ясно +23.6 +14.2 56 +26 +26 жарко 1009.6 999.3 +29.0
12 9.12 СВ 6 20 км ясно +25.2 +16.9 60 +29 +32 душно 1010.7 1000.4 +15.6
15 9.12 СВ 7 20 км 5/0
[Cs]
+30.8 +18.7 49 +36 +41 очень
душно
1010.7 1000.5
18 9.12 СВ 6 20 км 6/0
[Cs]
+32.0 +18.3 44 +37 +42 очень
душно
1009.5 999.5
21 9.12 В 6 20 км 6/0
[Cs]
+32.6 +19.7 47 +39 +40 очень
душно
1007.7 997.8
00 10.12 В 1 20 км 1/0
[Ci fib]
+27.6 +22.4 73 +36 +36 очень
душно
1009.2 999.1 +33.2
09 10.12 В 1 20 км 6/0 2000 м
[Ac As]
+23.2 +19.0 77 +29 +29 душно 1010.9 1000.6
12 10.12 В 2 20 км 8/3 900 м
[Cu med, cong Cs]
+27.0 +21.0 70 +34 +39 очень
душно
1012.3 1002.3 +23.2
15 10.12 СВ 4 20 км 9/5 900 м
[Cu Sc Cs]
+33.6 +22.7 53 +43 +49 опасность
перегрева
1012.1 1002.1
18 10.12 СВ 3 20 км 5/5 900 м
[Cu med, cong]
+35.6 +24.9 54 +49 +56 опасность
перегрева
1010.4 1000.5
21 10.12 В 2 20 км 4/4 900 м
[Cu med, cong]
+35.2 +25.2 56 +49 +51 опасность
перегрева
1007.3 997.4
00 11.12 В 1 20 км 5/5 800 м
[Sc diur, vesp]
+30.4 +26.9 82 +48 +48 опасность
перегрева
1008.7 998.7 +36.6
09 11.12 СВ 2 20 км 5/5 900 м
[Sc]
+25.8 +23.2 86 +35 +35 очень
душно
1008.8 998.6
12 11.12 СВ 6 20 км ясно +30.4 +24.3 70 +42 +45 опасность
перегрева
1009.7 999.7 +25.8
15 11.12 С 8 20 км 1/1 1200 м
[Cu hum]
+35.0 +23.4 51 +46 +49 опасность
перегрева
1009.3 999.4
18 11.12 С 8 20 км 4/4 1200 м
[Cu hum]
+36.4 +22.7 45 +46 +47 опасность
перегрева
1007.5 997.6
21 11.12 СВ 7 20 км 3/3 1200 м
[Cu hum]
+35.6 +21.5 44 +43 +44 опасность
перегрева
1005.3 996.4
00 12.12 СВ 3 20 км ясно +31.0 +22.1 59 +40 +40 очень
душно
1006.2 996.2 +36.8
09 12.12 СВ 1 20 км 9/5 800 м
[Cu Sc Cs]
+25.0 +21.9 83 +32 +32 очень
душно
1009.4 999.2
12 12.12 СВ 1 20 км 9/0
[Cs]
+28.6 +23.3 73 +39 +46 очень
душно
1008.9 998.8 +25.0
15 12.12 СВ 5 20 км 9/0
[Cs]
+33.6 +24.0 57 +45 +54 опасность
перегрева
1009.6 999.7
18 12.12 СВ 2 20 км 8/8 800 м
[Cu Sc]
+35.8 +23.2 48 +46 +49 опасность
перегрева
1008.1 998.2
21 12.12 В 4 20 км гроза без осадков 10/10 570 м
[Cb cap As trans]
+21.8 +20.7 93 +28 +28 душно 1010.4 1000.0 17
00 13.12 ЮВ 1 20 км 8/0
[Cs]
+22.6 +21.5 94 +30 +30 очень
душно
1008.2 997.9 +36.4
09 13.12 СВ 2 20 км 6/0
[Cs]
+22.2 +21.8 98 +29 +29 очень
душно
1008.2 997.9
12 13.12 СВ 6 20 км 6/0
[Cs]
+27.0 +24.0 84 +37 +40 очень
душно
1008.3 998.2 +21.4 17
15 13.12 С 7 20 км 5/3 1200 м
[Cu hum Ci fib]
+33.4 +24.4 59 +46 +49 опасность
перегрева
1006.8 996.9
18 13.12 СВ 7 20 км 5/5 1200 м
[Cu hum]
+35.6 +23.5 50 +46 +49 опасность
перегрева
1004.0 994.2
21 13.12 СВ 7 20 км 3/3 1200 м
[Cu hum]
+35.2 +22.0 46 +43 +44 опасность
перегрева
1001.8 992.0
00 14.12 СВ 6 20 км ясно +31.0 +23.6 65 +42 +42 опасность
перегрева
1001.8 991.8 +36.4
09 14.12 СВ 1 20 км 6/0
[Cs]
+27.2 +21.0 69 +34 +34 очень
душно
1003.2 993.1
12 14.12 С 5 20 км 5/0
[Ci fib]
+29.2 +21.7 64 +37 +41 очень
душно
1005.2 995.1 +27.0
15 14.12 С 7 20 км 1/1 1200 м
[Cu hum]
+32.8 +22.8 56 +43 +48 опасность
перегрева
1005.9 996.0
18 14.12 С 8 20 км 3/3 1200 м
[Cu hum]
+35.0 +21.9 47 +44 +45 опасность
перегрева
1004.9 995.0
21 14.12 С 5 20 км 3/0
[Ci fib]
+35.0 +22.0 47 +44 +45 опасность
перегрева
1003.0 993.7
00 15.12 С 1 20 км ясно +30.6 +25.4 74 +45 +45 опасность
перегрева
1006.6 996.6 +36.0

 

Местоположение метеостанции Gral. Bruguez (Парагвай): широта -24.76 долгота -58.83 высота над уровнем моря 80 м.

В архиве по умолчанию представлена погода в Gral. Bruguez за последнюю неделю. Архивные данные за месяц целиком и за предыдущие месяцы, начиная с января 2011 года, Вы можете получить, выбрав интересующий диапазон дат из раскрывающегося списка и нажав кнопку "Ввод!".


*Определитесь, кто Вы:
робот инопланетянин человек

Внимание! Время в таблицах - всемирное. Для получения местного времени необходимо прибавить поправку, которая в Gral. Bruguez равна -4 ч.

Смотрите также архив погоды в соседних городах и на ближайших метеорологических станциях:

Погода в Asuncion (Парагвай) (144 км)
Погода в Pozo Colorado (Парагвай) (154 км)
Погода в Formosa (Аргентина) (171 км)
Погода в Las Lomitas (Аргентина) (177 км)
Погода в San Pedro (Парагвай) (194 км)
Погода в Paraguari (Парагвай) (197 км)
Погода в Concepcion (Парагвай) (216 км)
Погода в Pilar (Парагвай) (238 км)
Погода в San Estanislao (Парагвай) (243 км)
Погода в Quyquyhat (Парагвай) (247 км)

Пояснения к столбцам:

Ветер - указаны скорость ветра в м/с - средняя за 10 мин, порывы в срок и между сроками (в фигурных скобках) и направление, откуда дует ветер: С - северный, СВ - северо-восточный, В - восточный, ЮВ - юго-восточный, Ю - южный, ЮЗ - юго-западный, З - западный, СЗ - северо-западный.
Видимость - горизонтальная дальность видимости в метрах или километрах. При видимости от 1 до 10 км при отсутствии осадков обычно наблюдается дымка, при ухудшении видимости до 1 км и менее - туман. В сухую погоду видимость может ухудшаться дымом, пылью или мглою.
Явления - указаны атмосферные явления, наблюдавшиеся в срок или в последний час перед сроком; фигурными скобками обозначены явления, наблюдавшиеся между сроками (за 1-3 часа до срока); квадратными скобками обозначены град или гололедные отложения с указанием их диаметра в мм.
Облачность - указаны через наклонную черту общая и нижняя облачность в баллах и высота нижней границы облаков в метрах; квадратными скобками обозначены формы облаков: Ci - перистые, Cs - перисто-слоистые, Cc - перисто-кучевые, Ac - высококучевые, As - высокослоистые, Sc - слоисто-кучевые, Ns - слоисто-дождевые, Cu - кучевые, Cb - кучево-дождевые. Подробнее классификацию облаков см. в Атласе облаков (PDF).
T - Температура воздуха - температура, измеренная на высоте 2 м над землей.
Td - Температура точки росы - температура, при понижении до которой содержащийся в воздухе водяной пар достигнет насыщения.
f - Относительная влажность воздуха - влажноcть воздуха, измеренная на высоте 2 м над землей.
Te - Эффективная температура - температура, которую ощущает одетый по сезону человек в тени. Характеристика душности погоды. При расчете учитывается влияние влажности воздуха и скорости ветра на теплоощущения человека.
Tes - Эффективная температура на солнце - температура, которую ощущает человек, с поправкой на солнечный нагрев. Характеристика знойности погоды. Зависит от высоты солнца над горизонтом, облачности и скорости ветра. Ночью, в пасмурную погоду, а также при ветре 12 м/с и более поправка равна нулю.
P - Атмосферное давление - приведенное к уровню моря атмосферное давление.
Po - Атмосферное давление - измеренное на уровне метеостанции атмосферное давление.
Tmin - Минимальная температура - минимум температуры воздуха на высоте 2 м над землей.
Tmax - Максимальная температура - максимум температуры воздуха на высоте 2 м над землей.
R - Количество осадков - Количество выпавших осадков за период времени, мм. При наведении курсора мыши на число - период времени, за который выпало указанное количество осадков.
R24 - Количество осадков - Количество выпавших осадков за 24 часа, мм.
S - Снежный покров - Высота снежного покрова, см. При наведении курсора мыши на число - состояние снежного покрова и степень покрытия местности в баллах.